Avoca, PA

10:38 PM EST on December 11, 2019 (GMT -0500)
Wilkes-Barre-Scranton International

Weather History for KAVP - October, 2019

Change the Weather History Date:

Wednesday, October 16, 2019

  Actual Average Record
Temperature  
Mean Temperature 56 °F 51 °F  
Max Temperature 63 °F 61 °F 84 °F (1947)
Min Temperature 49 °F 41 °F 28 °F (1944)
Degree Days  
Heating Degree Days 9 14  
Month to date heating degree days 130 189  
Since 1 July heating degree days 168 351  
Cooling Degree Days 0 0  
Month to date cooling degree days 16 0  
Year to date cooling degree days 846 576  
Growing Degree Days 4 (Base 50)    
Moisture  
Dew Point 51 °F    
Average Humidity 78    
Maximum Humidity 93    
Minimum Humidity 63    
Precipitation  
Precipitation 1.29 in 0.10 in 1.73 in (2002)
Month to date precipitation 2.95 1.83  
Year to date precipitation 41.82 30.93  
Sea Level Pressure  
Sea Level Pressure 29.66 in    
Wind  
Wind Speed 5 mph (WSW)    
Max Wind Speed 14 mph    
Max Gust Speed 22 mph    
Visibility 7 miles    
Events Rain    
T = Trace of Precipitation, MM = Missing Value Source: NWS Daily Summary

Daily Weather History Graph

Daily Weather History Graph

Search for Another Location

Airport or City:

Astronomy

Oct. 16, 2019 Rise Set
Actual Time 7:15 AM EDT 6:20 PM EDT
Civil Twilight 6:47 AM EDT 6:48 PM EDT
Nautical Twilight 6:15 AM EDT 7:20 PM EDT
Astronomical Twilight 5:43 AM EDT 7:52 PM EDT
Moon 8:11 PM EDT (10/16) 9:45 AM EDT (10/16)
Length of Visible Light 12h 00m
Length of Day
11h 05m
Waning Gibbous, 93% of the Moon is Illuminated
Oct 16
Waning Gibbous
Oct 21
Last Quarter
Oct 27
New
Nov 4
First Quarter
Nov 12
Full

Hourly Weather History & Observations

Time (EDT) Temp. Dew Point Humidity Pressure Visibility Wind Dir Wind Speed Gust Speed Precip Events Conditions
12:54 AM 51.1 °F 39.9 °F 66% 30.00 in 10.0 mi Calm Calm - N/A   Clear
1:54 AM 51.1 °F 43.0 °F 74% 29.98 in 10.0 mi North - - N/A   Clear
2:54 AM 50.0 °F 44.1 °F 80% 29.96 in 10.0 mi North 4.6 mph - N/A   Clear
3:54 AM 53.1 °F 46.0 °F 77% 29.93 in 10.0 mi Variable 3.5 mph - N/A   Clear
4:50 AM 51.8 °F 46.4 °F 82% 29.92 in 10.0 mi North 4.6 mph - N/A   Mostly Cloudy
4:54 AM 52.0 °F 46.9 °F 83% 29.92 in 10.0 mi Calm Calm - N/A   Mostly Cloudy
5:54 AM 55.0 °F 48.9 °F 80% 29.92 in 9.0 mi Calm Calm - N/A   Overcast
6:54 AM 55.9 °F 50.0 °F 80% 29.87 in 10.0 mi Calm Calm - N/A   Overcast
7:54 AM 57.0 °F 51.1 °F 81% 29.85 in 9.0 mi Variable 4.6 mph - N/A   Scattered Clouds
8:12 AM 57.9 °F 51.1 °F 78% 29.86 in 9.0 mi Calm Calm - N/A   Mostly Cloudy
8:54 AM 59.0 °F 52.0 °F 78% 29.84 in 9.0 mi Calm Calm - N/A   Overcast
9:54 AM 60.1 °F 53.1 °F 78% 29.80 in 9.0 mi SSE 8.1 mph 23.0 mph N/A   Overcast
10:16 AM 60.1 °F 54.0 °F 80% 29.79 in 10.0 mi Variable 5.8 mph - N/A   Overcast
10:36 AM 61.0 °F 54.0 °F 78% 29.77 in 10.0 mi Variable 6.9 mph 18.4 mph N/A   Mostly Cloudy
10:54 AM 62.1 °F 53.1 °F 72% 29.75 in 10.0 mi South 8.1 mph - N/A   Mostly Cloudy
11:24 AM 63.0 °F 53.1 °F 70% 29.75 in 10.0 mi SSE 8.1 mph - N/A   Mostly Cloudy
11:47 AM 63.0 °F 52.0 °F 67% 29.74 in 10.0 mi Variable 6.9 mph - N/A   Mostly Cloudy
11:54 AM 63.0 °F 52.0 °F 67% 29.73 in 10.0 mi Variable 5.8 mph - N/A   Partly Cloudy
12:54 PM 60.1 °F 53.1 °F 78% 29.70 in 5.0 mi Variable 5.8 mph - 0.02 in Rain Light Rain
1:54 PM 59.0 °F 55.9 °F 90% 29.66 in 2.5 mi Calm Calm - 0.05 in Rain Rain
2:25 PM 57.9 °F 55.9 °F 93% 29.64 in 3.0 mi Variable 4.6 mph - 0.09 in Rain Rain
2:42 PM 59.0 °F 55.9 °F 90% 29.62 in 1.8 mi South 3.5 mph - 0.13 in Rain Heavy Rain
2:47 PM 59.0 °F 55.4 °F 88% 29.62 in 2.0 mi Variable 4.6 mph - N/A Rain Rain
2:51 PM 59.0 °F 55.4 °F 88% 29.61 in 3.0 mi Variable 5.8 mph - 0.16 in Rain Light Rain
2:54 PM 60.1 °F 55.9 °F 86% 29.61 in 4.0 mi South 12.7 mph 21.9 mph 0.16 in Rain Rain
3:54 PM 59.0 °F 55.0 °F 87% 29.56 in 8.0 mi Variable 3.5 mph - 0.05 in Rain Light Rain
4:54 PM 57.9 °F 54.0 °F 87% 29.49 in 4.0 mi SSE 8.1 mph - 0.07 in Rain Rain
5:49 PM 57.2 °F 53.6 °F 88% 29.48 in 2.0 mi Variable 5.8 mph 19.6 mph 0.14 in Rain Heavy Rain
5:54 PM 57.9 °F 54.0 °F 87% 29.47 in 2.0 mi Variable 3.5 mph - 0.16 in Rain Rain
6:11 PM 57.9 °F 54.0 °F 87% 29.46 in 5.0 mi Variable 3.5 mph - 0.04 in Rain Light Rain
6:47 PM 57.0 °F 55.0 °F 93% 29.47 in 4.0 mi Calm Calm - 0.11 in Rain Rain
6:52 PM 57.2 °F 55.4 °F 94% 29.47 in 2.5 mi SSW 4.6 mph - N/A Rain Heavy Rain
6:54 PM 57.0 °F 55.0 °F 93% 29.46 in 2.5 mi SW 4.6 mph - 0.13 in Rain Heavy Rain
7:05 PM 57.0 °F 55.0 °F 93% 29.46 in 1.8 mi SSW 10.4 mph 17.3 mph 0.08 in Rain Heavy Rain
7:17 PM 55.9 °F 54.0 °F 93% 29.47 in 3.0 mi WSW 13.8 mph 19.6 mph 0.20 in Rain Heavy Rain
7:36 PM 55.9 °F 54.0 °F 93% 29.47 in 3.0 mi WNW 6.9 mph - 0.26 in Rain Rain
7:54 PM 55.0 °F 53.1 °F 93% 29.46 in 3.0 mi West 13.8 mph - 0.30 in Rain Rain
8:03 PM 54.0 °F 52.0 °F 93% 29.47 in 2.0 mi NNW 12.7 mph 21.9 mph 0.05 in Rain Heavy Rain
8:54 PM 51.1 °F 48.0 °F 89% 29.47 in 4.0 mi Variable 6.9 mph - 0.21 in Rain Rain
9:29 PM 50.0 °F 48.0 °F 93% 29.46 in 4.0 mi NW 6.9 mph - 0.10 in Rain Rain
9:54 PM 50.0 °F 48.0 °F 93% 29.44 in 7.0 mi NNW 8.1 mph - 0.13 in Rain Light Rain
10:54 PM 50.0 °F 46.0 °F 86% 29.43 in 10.0 mi WNW 8.1 mph - 0.01 in   Overcast
11:07 PM 50.0 °F 45.0 °F 83% 29.43 in 10.0 mi NW 17.3 mph 27.6 mph N/A   Overcast
11:54 PM 48.9 °F 43.0 °F 80% 29.41 in 10.0 mi WNW 10.4 mph - N/A   Mostly Cloudy